Location: Jabiru
(12.6667°S, 132.8333°E)
Time: 04:11:44
(UTC+09:30)

X-37B - Visible Passes

Search period start: 17 June 2021 00:00
Search period end: 27 June 2021 00:00
Orbit: 386 x 389 km, 45.0° (Epoch: 10 June)

Date Brightness Start Highest point End Pass type
(mag) Time Alt. Az. Time Alt. Az. Time Alt. Az.
18 Jun 2.0 19:01:27 10° S 19:03:54 20° SE 19:05:09 16° ESE visible
19 Jun 1.7 19:39:03 10° WSW 19:42:07 45° NW 19:44:24 16° NNE visible
20 Jun 0.7 18:40:40 10° SW 18:43:49 55° SE 18:46:56 10° NE visible
21 Jun 3.8 19:19:49 10° W 19:21:55 16° NW 19:24:00 10° N visible
24 Jun 2.7 06:34:42 10° NNW 06:37:34 32° NE 06:40:28 10° ESE visible
25 Jun 4.0 05:37:56 10° NNE 05:39:19 12° NE 05:40:42 10° ENE visible
26 Jun 0.5 06:14:14 10° NW 06:17:23 78° SW 06:20:35 10° SE visible
